Date String (YYYY-MM-DD hh:mm:ss) UTC,Instrument flags,Ambient pressure (hPa),Sample flow (lpm),Bypass flow (lpm),Sample temperature (°C),Ambient temperature (°C),ASC tube jacket temperature (°C),LED temperature (°C),Box temperature (°C),Sample RH (%),Span deviation,Mass concentration (μg/m³),Mass concentration (μg/m³),Mass concentration (μg/m³)
DateTimeUTC,F1_M11,P_M11,Q1_M11,Q2_M11,T1_M11,T2_M11,T3_M11,T4_M11,T5_M11,U1_M11,ZSPAN_M11,X0_M11,X2_M11,X1_M11
2022-05-30 18:00:00,,0813.5,5.00,0.00,25.1,24.0,00.0,34.0,27.1,12.7,0000.0,0003.70,0000.98,0000.41
2022-05-30 18:01:00,,0813.6,5.00,0.00,25.1,24.0,00.0,34.0,27.1,12.3,0000.0,0003.70,0001.00,0000.41
2022-05-30 18:02:00,,0813.5,5.01,0.00,25.1,24.0,00.0,34.1,27.1,12.9,0000.0,0003.67,0000.99,0000.42
2022-05-30 18:03:00,,0813.4,4.99,0.00,25.1,24.1,00.0,34.1,27.1,12.0,0000.0,0003.56,0000.96,0000.42
2022-05-30 18:04:00,,0813.4,5.00,0.00,25.1,24.1,00.0,34.1,27.1,11.7,0000.0,0003.19,0000.88,0000.42
2022-05-30 18:05:00,,0813.4,5.01,0.00,25.1,24.0,00.0,34.1,27.1,12.0,0000.0,0002.93,0000.83,0000.43
2022-05-30 18:06:00,,0813.5,4.99,0.00,25.1,24.0,00.0,34.1,27.1,11.6,0000.0,0002.25,0000.76,0000.44
2022-05-30 18:07:00,,0813.4,5.01,0.00,25.1,24.0,00.0,34.1,27.1,11.9,0000.0,0001.57,0000.73,0000.44
2022-05-30 18:08:00,,0813.5,5.00,0.00,25.2,24.0,00.0,34.1,27.1,11.9,0000.0,0001.48,0000.73,0000.45
2022-05-30 18:09:00,,0813.6,4.99,0.00,25.2,24.0,00.0,34.1,27.1,11.5,0000.0,0001.37,0000.68,0000.45
2022-05-30 18:10:00,,0813.5,5.01,0.00,25.2,24.0,00.0,34.1,27.1,12.6,0000.0,0001.30,0000.66,0000.45
2022-05-30 18:11:00,,0813.4,5.00,0.00,25.2,24.0,00.0,34.1,27.1,12.7,0000.0,0001.38,0000.69,0000.46
2022-05-30 18:12:00,,0813.5,5.00,0.00,25.2,24.0,00.0,34.1,27.1,13.1,0000.0,0001.37,0000.68,0000.46
2022-05-30 18:13:00,,0813.6,4.99,0.00,25.2,24.0,00.0,34.1,27.1,11.8,0000.0,0001.37,0000.68,0000.46
2022-05-30 18:14:00,,0813.6,5.00,0.00,25.2,24.0,00.0,34.1,27.1,12.6,0000.0,0001.34,0000.67,0000.45
2022-05-30 18:15:00,,0813.5,5.01,0.00,25.2,24.0,00.0,34.1,27.1,13.0,0000.0,0001.34,0000.68,0000.45
2022-05-30 18:16:00,,0813.7,4.99,0.00,25.2,24.0,00.0,34.1,27.1,12.2,0000.0,0001.35,0000.68,0000.44
2022-05-30 18:17:00,,0813.9,5.01,0.00,25.2,24.1,00.0,34.1,27.1,12.5,0000.0,0001.36,0000.68,0000.43
2022-05-30 18:18:00,,0813.7,5.00,0.00,25.2,24.1,00.0,34.1,27.1,13.1,0000.0,0001.32,0000.65,0000.42
2022-05-30 18:19:00,,0814.0,4.98,0.00,25.2,24.1,00.0,34.1,27.1,13.5,0000.0,0001.23,0000.62,0000.40
2022-05-30 18:20:00,,0813.7,4.99,0.00,25.2,24.1,00.0,34.1,27.1,13.2,0000.0,0001.14,0000.62,0000.40
2022-05-30 18:21:00,,0813.6,5.01,0.00,25.2,24.1,00.0,34.1,27.1,12.5,0000.0,0001.11,0000.61,0000.39
2022-05-30 18:22:00,,0813.8,5.01,0.00,25.2,24.1,00.0,34.1,27.1,13.1,0000.0,0002.08,0000.58,0000.37
2022-05-30 18:23:00,,0813.6,4.98,0.00,25.2,24.1,00.0,34.1,27.1,13.2,0000.0,0003.39,0000.57,0000.36
2022-05-30 18:24:00,,0813.6,5.02,0.00,25.2,24.1,00.0,34.1,27.1,12.9,0000.0,0003.38,0000.56,0000.36
2022-05-30 18:25:00,,0813.8,5.00,0.00,25.2,24.1,00.0,34.1,27.1,13.3,0000.0,0003.36,0000.55,0000.35
2022-05-30 18:26:00,,0813.7,4.99,0.00,25.2,24.1,00.0,34.1,27.1,12.4,0000.0,0003.34,0000.54,0000.34
2022-05-30 18:27:00,,0813.8,5.01,0.00,25.2,24.1,00.0,34.1,27.1,12.5,0000.0,0003.37,0000.54,0000.34
2022-05-30 18:28:00,,0813.7,5.01,0.00,25.2,24.1,00.0,34.1,27.1,12.5,0000.0,0003.60,0000.55,0000.35
2022-05-30 18:29:00,,0813.7,4.99,0.00,25.2,24.1,00.0,34.1,27.1,13.8,0000.0,0004.19,0000.59,0000.35
2022-05-30 18:30:00,,0813.7,5.00,0.00,25.2,24.1,00.0,34.1,27.1,12.9,0000.0,0004.21,0000.61,0000.35
2022-05-30 18:31:00,,0813.8,5.00,0.00,25.2,24.1,00.0,34.1,27.2,13.8,0000.0,0004.25,0000.62,0000.35
2022-05-30 18:32:00,,0814.0,5.00,0.00,25.2,24.1,00.0,34.1,27.2,13.6,0000.0,0004.27,0000.62,0000.36
2022-05-30 18:33:00,,0813.8,5.00,0.00,25.2,24.1,00.0,34.1,27.2,12.7,0000.0,0003.49,0000.61,0000.37
2022-05-30 18:34:00,,0813.9,5.00,0.00,25.2,24.1,00.0,34.1,27.2,13.8,0000.0,0001.98,0000.60,0000.37
2022-05-30 18:35:00,,0814.2,4.99,0.00,25.2,24.1,00.0,34.1,27.2,13.1,0000.0,0001.89,0000.58,0000.37
2022-05-30 18:36:00,,0814.0,5.00,0.00,25.3,24.1,00.0,34.1,27.2,11.9,0000.0,0001.86,0000.57,0000.37
2022-05-30 18:37:00,,0813.8,5.00,0.00,25.3,24.2,00.0,34.1,27.2,12.5,0000.0,0001.85,0000.57,0000.37
2022-05-30 18:38:00,,0813.8,4.99,0.00,25.3,24.2,00.0,34.1,27.2,12.2,0000.0,0001.78,0000.55,0000.36
2022-05-30 18:39:00,,0813.8,5.01,0.00,25.3,24.2,00.0,34.2,27.2,12.0,0000.0,0001.62,0000.53,0000.36
2022-05-30 18:40:00,,0814.1,5.00,0.00,25.3,24.2,00.0,34.2,27.2,12.5,0000.0,0000.98,0000.54,0000.36
2022-05-30 18:41:00,,0814.0,5.00,0.00,25.3,24.2,00.0,34.2,27.2,12.3,0000.0,0001.02,0000.55,0000.36
2022-05-30 18:42:00,,0813.9,4.99,0.00,25.3,24.2,00.0,34.2,27.2,12.6,0000.0,0001.00,0000.54,0000.35
2022-05-30 18:43:00,,0813.8,5.00,0.00,25.3,24.2,00.0,34.2,27.3,12.4,0000.0,0000.97,0000.52,0000.35
2022-05-30 18:44:00,,0813.7,5.00,0.00,25.3,24.2,00.0,34.2,27.2,12.1,0000.0,0000.96,0000.51,0000.35
2022-05-30 18:45:00,,0813.8,4.99,0.00,25.3,24.2,00.0,34.2,27.3,12.0,0000.0,0000.94,0000.53,0000.35
2022-05-30 18:46:00,,0814.1,5.01,0.00,25.3,24.2,00.0,34.2,27.2,11.4,0000.0,0000.97,0000.55,0000.35
2022-05-30 18:47:00,,0814.0,5.00,0.00,25.3,24.2,00.0,34.2,27.3,11.5,0000.0,0001.03,0000.57,0000.36
2022-05-30 18:48:00,,0813.8,5.00,0.00,25.3,24.2,00.0,34.2,27.3,11.6,0000.0,0001.05,0000.59,0000.36
2022-05-30 18:49:00,,0813.9,5.01,0.00,25.3,24.2,00.0,34.2,27.2,11.9,0000.0,0001.19,0000.63,0000.36
2022-05-30 18:50:00,,0813.8,4.99,0.00,25.3,24.2,00.0,34.2,27.3,12.7,0000.0,0001.37,0000.67,0000.36
2022-05-30 18:51:00,,0813.8,4.99,0.00,25.3,24.2,00.0,34.2,27.3,12.1,0000.0,0001.42,0000.69,0000.36
2022-05-30 18:52:00,,0813.8,5.00,0.00,25.3,24.2,00.0,34.2,27.3,12.5,0000.0,0001.42,0000.69,0000.36
2022-05-30 18:53:00,,0814.0,5.00,0.00,25.3,24.3,00.0,34.2,27.3,13.1,0000.0,0001.45,0000.70,0000.36
2022-05-30 18:54:00,,0814.2,5.00,0.00,25.3,24.3,00.0,34.2,27.3,12.9,0000.0,0001.48,0000.72,0000.36
2022-05-30 18:55:00,,0813.8,5.00,0.00,25.3,24.3,00.0,34.2,27.3,12.8,0000.0,0001.48,0000.73,0000.36
2022-05-30 18:56:00,,0813.8,5.00,0.00,25.3,24.3,00.0,34.2,27.3,12.6,0000.0,0001.45,0000.71,0000.36
2022-05-30 18:57:00,,0813.9,5.00,0.00,25.3,24.3,00.0,34.2,27.3,12.5,0000.0,0001.43,0000.70,0000.36
2022-05-30 18:58:00,,0813.8,5.00,0.00,25.3,24.3,00.0,34.2,27.3,13.2,0000.0,0001.41,0000.69,0000.36
2022-05-30 18:59:00,,0814.0,5.01,0.00,25.3,24.3,00.0,34.2,27.3,13.3,0000.0,0001.42,0000.69,0000.36
